Location: Helion Bumpstead
(52.0500°N, 0.4000°E)
Time: 21:02:54
(UTC+00:00)

IRS P6 - Pass Details

Date: 15 November 2025
Orbit: 796 x 871 km, 99.0° (Epoch: 14 December)

Event Time Altitude Azimuth Distance (km) Brightness Sun altitude
Rises 04:28:33 0° 14° (NNE) 3,355 8.0 -25.9°
Reaches altitude 10° 04:30:55 10° 13° (NNE) 2,410 7.2 -25.5°
Maximum altitude 04:36:13 74° 290° (WNW) 839 4.4 -24.7°
Enters shadow 04:36:57 63° 234° (SW) 895 4.5 -24.6°
